owner,sensor,date,latitude,longitude,vertical_datum,wind_speed,wind_to_direction,wind_speed_of_gust,qcFlag 
NOS,ioos:station:wmo:bzst2:1,2019-07-01T00:00:00Z,26.0670,-97.1550,15.0,6.6,130.0,7.6,'11111222,11111222,11111222' 
NOS,ioos:station:wmo:bzst2:1,2019-07-01T00:06:00Z,26.0670,-97.1550,15.0,6.8,130.0,7.6,'11111222,11111222,11111222' 
NOS,ioos:station:wmo:bzst2:1,2019-07-01T00:12:00Z,26.0670,-97.1550,15.0,6.4,131.0,7.3,'11111222,11111222,11111222' 
NOS,ioos:station:wmo:bzst2:1,2019-07-01T00:18:00Z,26.0670,-97.1550,15.0,6.1,128.0,7.2,'11111222,11111222,11111222' 
NOS,ioos:station:wmo:bzst2:1,2019-07-01T00:24:00Z,26.0670,-97.1550,15.0,7.0,126.0,8.0,'11111222,11111222,11111222' 
NOS,ioos:station:wmo:bzst2:1,2019-07-01T00:30:00Z,26.0670,-97.1550,15.0,6.5,128.0,7.8,'11111222,11111222,11111222' 
NOS,ioos:station:wmo:bzst2:1,2019-07-01T00:36:00Z,26.0670,-97.1550,15.0,6.9,132.0,8.2,'11111222,11111222,11111222' 
NOS,ioos:station:wmo:bzst2:1,2019-07-01T00:42:00Z,26.0670,-97.1550,15.0,7.1,133.0,7.9,'11111222,11111222,11111222' 
NOS,ioos:station:wmo:bzst2:1,2019-07-01T00:48:00Z,26.0670,-97.1550,15.0,6.9,132.0,7.9,'11111222,11111222,11111222' 
NOS,ioos:station:wmo:bzst2:1,2019-07-01T00:54:00Z,26.0670,-97.1550,15.0,7.0,129.0,8.1,'11111222,11111222,11111222' 
NOS,ioos:station:wmo:bzst2:1,2019-07-01T01:00:00Z,26.0670,-97.1550,15.0,7.1,129.0,8.3,'11111222,11111222,11111222' 
NOS,ioos:station:wmo:bzst2:1,2019-07-01T01:06:00Z,26.0670,-97.1550,15.0,6.7,127.0,7.8,'11111222,11111222,11111222' 
NOS,ioos:station:wmo:bzst2:1,2019-07-01T01:12:00Z,26.0670,-97.1550,15.0,7.8,120.0,8.5,'11111222,11111222,11111222' 
NOS,ioos:station:wmo:bzst2:1,2019-07-01T01:18:00Z,26.0670,-97.1550,15.0,7.0,118.0,8.3,'11111222,11111222,11111222' 
NOS,ioos:station:wmo:bzst2:1,2019-07-01T01:24:00Z,26.0670,-97.1550,15.0,6.8,119.0,7.9,'11111222,11111222,11111222' 
NOS,ioos:station:wmo:bzst2:1,2019-07-01T01:30:00Z,26.0670,-97.1550,15.0,6.3,125.0,7.3,'11111222,11111222,11111222' 
NOS,ioos:station:wmo:bzst2:1,2019-07-01T01:36:00Z,26.0670,-97.1550,15.0,7.3,124.0,7.8,'11111222,11111222,11111222' 
NOS,ioos:station:wmo:bzst2:1,2019-07-01T01:42:00Z,26.0670,-97.1550,15.0,6.8,123.0,7.6,'11111222,11111222,11111222' 
NOS,ioos:station:wmo:bzst2:1,2019-07-01T01:48:00Z,26.0670,-97.1550,15.0,6.8,125.0,7.7,'11111222,11111222,11111222' 
NOS,ioos:station:wmo:bzst2:1,2019-07-01T01:54:00Z,26.0670,-97.1550,15.0,5.9,125.0,7.5,'11111222,11111222,11111222' 
NOS,ioos:station:wmo:bzst2:1,2019-07-01T02:00:00Z,26.0670,-97.1550,15.0,6.5,125.0,7.5,'11111222,11111222,11111222' 
NOS,ioos:station:wmo:bzst2:1,2019-07-01T02:06:00Z,26.0670,-97.1550,15.0,6.1,126.0,6.9,'11111222,11111222,11111222' 
NOS,ioos:station:wmo:bzst2:1,2019-07-01T02:12:00Z,26.0670,-97.1550,15.0,4.8,127.0,6.8,'11111222,11111222,11111222' 
NOS,ioos:station:wmo:bzst2:1,2019-07-01T02:18:00Z,26.0670,-97.1550,15.0,5.2,127.0,6.5,'11111222,11111222,11111222' 
NOS,ioos:station:wmo:bzst2:1,2019-07-01T02:24:00Z,26.0670,-97.1550,15.0,5.6,127.0,6.3,'11111222,11111222,11111222' 
NOS,ioos:station:wmo:bzst2:1,2019-07-01T02:30:00Z,26.0670,-97.1550,15.0,5.6,127.0,6.4,'11111222,11111222,11111222' 
NOS,ioos:station:wmo:bzst2:1,2019-07-01T02:36:00Z,26.0670,-97.1550,15.0,5.9,132.0,6.6,'11111222,11111222,11111222' 
NOS,ioos:station:wmo:bzst2:1,2019-07-01T02:42:00Z,26.0670,-97.1550,15.0,5.4,134.0,6.7,'11111222,11111222,11111222' 
NOS,ioos:station:wmo:bzst2:1,2019-07-01T02:48:00Z,26.0670,-97.1550,15.0,5.9,136.0,6.7,'11111222,11111222,11111222' 
NOS,ioos:station:wmo:bzst2:1,2019-07-01T02:54:00Z,26.0670,-97.1550,15.0,6.2,137.0,7.1,'11111222,11111222,11111222' 
NOS,ioos:station:wmo:bzst2:1,2019-07-01T03:00:00Z,26.0670,-97.1550,15.0,5.9,135.0,6.7,'11111222,11111222,11111222' 
NOS,ioos:station:wmo:bzst2:1,2019-07-01T03:06:00Z,26.0670,-97.1550,15.0,6.1,126.0,7.0,'11111222,11111222,11111222' 
NOS,ioos:station:wmo:bzst2:1,2019-07-01T03:12:00Z,26.0670,-97.1550,15.0,5.9,126.0,6.6,'11111222,11111222,11111222' 
NOS,ioos:station:wmo:bzst2:1,2019-07-01T03:18:00Z,26.0670,-97.1550,15.0,5.9,128.0,6.7,'11111222,11111222,11111222' 
NOS,ioos:station:wmo:bzst2:1,2019-07-01T03:24:00Z,26.0670,-97.1550,15.0,6.0,131.0,7.0,'11111222,11111222,11111222' 
NOS,ioos:station:wmo:bzst2:1,2019-07-01T03:30:00Z,26.0670,-97.1550,15.0,5.9,136.0,7.1,'11111222,11111222,11111222' 
NOS,ioos:station:wmo:bzst2:1,2019-07-01T03:36:00Z,26.0670,-97.1550,15.0,6.5,138.0,7.2,'11111222,11111222,11111222' 
NOS,ioos:station:wmo:bzst2:1,2019-07-01T03:42:00Z,26.0670,-97.1550,15.0,6.2,137.0,7.5,'11111222,11111222,11111222' 
NOS,ioos:station:wmo:bzst2:1,2019-07-01T03:48:00Z,26.0670,-97.1550,15.0,6.2,137.0,7.3,'11111222,11111222,11111222' 
NOS,ioos:station:wmo:bzst2:1,2019-07-01T03:54:00Z,26.0670,-97.1550,15.0,6.6,139.0,7.4,'11111222,11111222,11111222' 
NOS,ioos:station:wmo:bzst2:1,2019-07-01T04:00:00Z,26.0670,-97.1550,15.0,6.5,137.0,7.3,'11111222,11111222,11111222' 
NOS,ioos:station:wmo:bzst2:1,2019-07-01T04:06:00Z,26.0670,-97.1550,15.0,6.5,139.0,7.5,'11111222,11111222,11111222' 
NOS,ioos:station:wmo:bzst2:1,2019-07-01T04:12:00Z,26.0670,-97.1550,15.0,6.4,137.0,7.8,'11111222,11111222,11111222' 
NOS,ioos:station:wmo:bzst2:1,2019-07-01T04:18:00Z,26.0670,-97.1550,15.0,6.4,138.0,7.4,'11111222,11111222,11111222' 
NOS,ioos:station:wmo:bzst2:1,2019-07-01T04:24:00Z,26.0670,-97.1550,15.0,6.2,141.0,7.2,'11111222,11111222,11111222' 
NOS,ioos:station:wmo:bzst2:1,2019-07-01T04:30:00Z,26.0670,-97.1550,15.0,6.4,141.0,7.1,'11111222,11111222,11111222' 
NOS,ioos:station:wmo:bzst2:1,2019-07-01T04:36:00Z,26.0670,-97.1550,15.0,6.1,143.0,7.0,'11111222,11111222,11111222' 
NOS,ioos:station:wmo:bzst2:1,2019-07-01T04:42:00Z,26.0670,-97.1550,15.0,5.8,142.0,6.7,'11111222,11111222,11111222' 
NOS,ioos:station:wmo:bzst2:1,2019-07-01T04:48:00Z,26.0670,-97.1550,15.0,5.8,142.0,7.1,'11111222,11111222,11111222' 
NOS,ioos:station:wmo:bzst2:1,2019-07-01T04:54:00Z,26.0670,-97.1550,15.0,5.9,142.0,6.7,'11111222,11111222,11111222' 
NOS,ioos:station:wmo:bzst2:1,2019-07-01T05:00:00Z,26.0670,-97.1550,15.0,5.4,141.0,6.5,'11111222,11111222,11111222' 
NOS,ioos:station:wmo:bzst2:1,2019-07-01T05:06:00Z,26.0670,-97.1550,15.0,5.9,145.0,6.8,'11111222,11111222,11111222' 
NOS,ioos:station:wmo:bzst2:1,2019-07-01T05:12:00Z,26.0670,-97.1550,15.0,6.2,146.0,6.9,'11111222,11111222,11111222' 
NOS,ioos:station:wmo:bzst2:1,2019-07-01T05:18:00Z,26.0670,-97.1550,15.0,6.3,148.0,7.6,'11111222,11111222,11111222' 
NOS,ioos:station:wmo:bzst2:1,2019-07-01T05:24:00Z,26.0670,-97.1550,15.0,6.6,148.0,7.6,'11111222,11111222,11111222' 
NOS,ioos:station:wmo:bzst2:1,2019-07-01T05:30:00Z,26.0670,-97.1550,15.0,6.5,150.0,7.7,'11111222,11111222,11111222' 
NOS,ioos:station:wmo:bzst2:1,2019-07-01T05:36:00Z,26.0670,-97.1550,15.0,6.1,146.0,7.4,'11111222,11111222,11111222' 
NOS,ioos:station:wmo:bzst2:1,2019-07-01T05:42:00Z,26.0670,-97.1550,15.0,6.6,150.0,7.5,'11111222,11111222,11111222' 
NOS,ioos:station:wmo:bzst2:1,2019-07-01T05:48:00Z,26.0670,-97.1550,15.0,6.0,148.0,6.9,'11111222,11111222,11111222' 
NOS,ioos:station:wmo:bzst2:1,2019-07-01T05:54:00Z,26.0670,-97.1550,15.0,6.1,147.0,7.2,'11111222,11111222,11111222' 
NOS,ioos:station:wmo:bzst2:1,2019-07-01T06:00:00Z,26.0670,-97.1550,15.0,6.5,148.0,7.6,'11111222,11111222,11111222' 
NOS,ioos:station:wmo:bzst2:1,2019-07-01T06:06:00Z,26.0670,-97.1550,15.0,6.1,149.0,7.3,'11111222,11111222,11111222' 
NOS,ioos:station:wmo:bzst2:1,2019-07-01T06:12:00Z,26.0670,-97.1550,15.0,5.8,151.0,7.5,'11111222,11111222,11111222' 
NOS,ioos:station:wmo:bzst2:1,2019-07-01T06:18:00Z,26.0670,-97.1550,15.0,5.9,150.0,6.9,'11111222,11111222,11111222' 
NOS,ioos:station:wmo:bzst2:1,2019-07-01T06:24:00Z,26.0670,-97.1550,15.0,5.8,147.0,6.5,'11111222,11111222,11111222' 
NOS,ioos:station:wmo:bzst2:1,2019-07-01T06:30:00Z,26.0670,-97.1550,15.0,5.5,148.0,6.6,'11111222,11111222,11111222' 
NOS,ioos:station:wmo:bzst2:1,2019-07-01T06:36:00Z,26.0670,-97.1550,15.0,6.5,149.0,7.3,'11111222,11111222,11111222' 
NOS,ioos:station:wmo:bzst2:1,2019-07-01T06:42:00Z,26.0670,-97.1550,15.0,6.6,153.0,7.7,'11111222,11111222,11111222' 
NOS,ioos:station:wmo:bzst2:1,2019-07-01T06:48:00Z,26.0670,-97.1550,15.0,6.1,154.0,8.0,'11111222,11111222,11111222' 
NOS,ioos:station:wmo:bzst2:1,2019-07-01T06:54:00Z,26.0670,-97.1550,15.0,6.9,153.0,7.8,'11111222,11111222,11111222' 
NOS,ioos:station:wmo:bzst2:1,2019-07-01T07:00:00Z,26.0670,-97.1550,15.0,6.6,155.0,7.8,'11111222,11111222,11111222' 
NOS,ioos:station:wmo:bzst2:1,2019-07-01T07:06:00Z,26.0670,-97.1550,15.0,6.8,151.0,7.7,'11111222,11111222,11111222' 
NOS,ioos:station:wmo:bzst2:1,2019-07-01T07:12:00Z,26.0670,-97.1550,15.0,6.3,154.0,7.3,'11111222,11111222,11111222' 
NOS,ioos:station:wmo:bzst2:1,2019-07-01T07:18:00Z,26.0670,-97.1550,15.0,5.9,155.0,7.1,'11111222,11111222,11111222' 
NOS,ioos:station:wmo:bzst2:1,2019-07-01T07:24:00Z,26.0670,-97.1550,15.0,5.5,154.0,7.0,'11111222,11111222,11111222' 
NOS,ioos:station:wmo:bzst2:1,2019-07-01T07:30:00Z,26.0670,-97.1550,15.0,5.0,156.0,6.0,'11111222,11111222,11111222' 
NOS,ioos:station:wmo:bzst2:1,2019-07-01T07:36:00Z,26.0670,-97.1550,15.0,5.2,157.0,6.3,'11111222,11111222,11111222' 
NOS,ioos:station:wmo:bzst2:1,2019-07-01T07:42:00Z,26.0670,-97.1550,15.0,4.6,159.0,6.1,'11111222,11111222,11111222' 
NOS,ioos:station:wmo:bzst2:1,2019-07-01T07:48:00Z,26.0670,-97.1550,15.0,4.9,160.0,6.2,'11111222,11111222,11111222' 
NOS,ioos:station:wmo:bzst2:1,2019-07-01T07:54:00Z,26.0670,-97.1550,15.0,4.8,160.0,6.0,'11111222,11111222,11111222' 
NOS,ioos:station:wmo:bzst2:1,2019-07-01T08:00:00Z,26.0670,-97.1550,15.0,4.9,163.0,6.1,'11111222,11111222,11111222' 
NOS,ioos:station:wmo:bzst2:1,2019-07-01T08:06:00Z,26.0670,-97.1550,15.0,4.2,164.0,6.0,'11111222,11111222,11111222' 
NOS,ioos:station:wmo:bzst2:1,2019-07-01T08:12:00Z,26.0670,-97.1550,15.0,3.9,163.0,5.1,'11111222,11111222,11111222' 
NOS,ioos:station:wmo:bzst2:1,2019-07-01T08:18:00Z,26.0670,-97.1550,15.0,3.6,160.0,4.9,'11111222,11111222,11111222' 
NOS,ioos:station:wmo:bzst2:1,2019-07-01T08:24:00Z,26.0670,-97.1550,15.0,3.5,159.0,4.3,'11111222,11111222,11111222' 
NOS,ioos:station:wmo:bzst2:1,2019-07-01T08:30:00Z,26.0670,-97.1550,15.0,3.2,165.0,4.2,'11111222,11111222,11111222' 
NOS,ioos:station:wmo:bzst2:1,2019-07-01T08:36:00Z,26.0670,-97.1550,15.0,3.0,161.0,4.0,'11111222,11111222,11111222' 
NOS,ioos:station:wmo:bzst2:1,2019-07-01T08:42:00Z,26.0670,-97.1550,15.0,3.7,164.0,4.5,'11111222,11111222,11111222' 
NOS,ioos:station:wmo:bzst2:1,2019-07-01T08:48:00Z,26.0670,-97.1550,15.0,3.8,159.0,4.8,'11111222,11111222,11111222' 
NOS,ioos:station:wmo:bzst2:1,2019-07-01T08:54:00Z,26.0670,-97.1550,15.0,4.0,162.0,4.6,'11111222,11111222,11111222' 
NOS,ioos:station:wmo:bzst2:1,2019-07-01T09:00:00Z,26.0670,-97.1550,15.0,4.0,159.0,4.7,'11111222,11111222,11111222' 
NOS,ioos:station:wmo:bzst2:1,2019-07-01T09:06:00Z,26.0670,-97.1550,15.0,4.5,161.0,5.6,'11111222,11111222,11111222' 
NOS,ioos:station:wmo:bzst2:1,2019-07-01T09:12:00Z,26.0670,-97.1550,15.0,5.0,162.0,6.0,'11111222,11111222,11111222' 
NOS,ioos:station:wmo:bzst2:1,2019-07-01T09:18:00Z,26.0670,-97.1550,15.0,4.3,164.0,5.7,'11111222,11111222,11111222' 
NOS,ioos:station:wmo:bzst2:1,2019-07-01T09:24:00Z,26.0670,-97.1550,15.0,4.5,167.0,5.6,'11111222,11111222,11111222' 
NOS,ioos:station:wmo:bzst2:1,2019-07-01T09:30:00Z,26.0670,-97.1550,15.0,4.3,165.0,5.4,'11111222,11111222,11111222' 
NOS,ioos:station:wmo:bzst2:1,2019-07-01T09:36:00Z,26.0670,-97.1550,15.0,4.5,161.0,5.3,'11111222,11111222,11111222' 
NOS,ioos:station:wmo:bzst2:1,2019-07-01T09:42:00Z,26.0670,-97.1550,15.0,4.9,166.0,5.4,'11111222,11111222,11111222' 
NOS,ioos:station:wmo:bzst2:1,2019-07-01T09:48:00Z,26.0670,-97.1550,15.0,4.8,164.0,6.0,'11111222,11111222,11111222' 
NOS,ioos:station:wmo:bzst2:1,2019-07-01T09:54:00Z,26.0670,-97.1550,15.0,4.7,165.0,5.6,'11111222,11111222,11111222' 
NOS,ioos:station:wmo:bzst2:1,2019-07-01T10:00:00Z,26.0670,-97.1550,15.0,4.8,167.0,5.8,'11111222,11111222,11111222' 
NOS,ioos:station:wmo:bzst2:1,2019-07-01T10:06:00Z,26.0670,-97.1550,15.0,4.5,173.0,5.7,'11111222,11111222,11111222' 
NOS,ioos:station:wmo:bzst2:1,2019-07-01T10:12:00Z,26.0670,-97.1550,15.0,4.1,174.0,5.1,'11111222,11111222,11111222' 
NOS,ioos:station:wmo:bzst2:1,2019-07-01T10:18:00Z,26.0670,-97.1550,15.0,4.0,169.0,4.7,'11111222,11111222,11111222' 
NOS,ioos:station:wmo:bzst2:1,2019-07-01T10:24:00Z,26.0670,-97.1550,15.0,4.4,165.0,5.2,'11111222,11111222,11111222' 
NOS,ioos:station:wmo:bzst2:1,2019-07-01T10:30:00Z,26.0670,-97.1550,15.0,4.9,161.0,5.8,'11111222,11111222,11111222' 
NOS,ioos:station:wmo:bzst2:1,2019-07-01T10:36:00Z,26.0670,-97.1550,15.0,4.8,158.0,5.5,'11111222,11111222,11111222' 
NOS,ioos:station:wmo:bzst2:1,2019-07-01T10:42:00Z,26.0670,-97.1550,15.0,4.8,161.0,5.8,'11111222,11111222,11111222' 
NOS,ioos:station:wmo:bzst2:1,2019-07-01T10:48:00Z,26.0670,-97.1550,15.0,4.8,157.0,6.0,'11111222,11111222,11111222' 
NOS,ioos:station:wmo:bzst2:1,2019-07-01T10:54:00Z,26.0670,-97.1550,15.0,4.9,160.0,5.9,'11111222,11111222,11111222' 
NOS,ioos:station:wmo:bzst2:1,2019-07-01T11:00:00Z,26.0670,-97.1550,15.0,4.9,161.0,5.8,'11111222,11111222,11111222' 
NOS,ioos:station:wmo:bzst2:1,2019-07-01T11:06:00Z,26.0670,-97.1550,15.0,4.7,160.0,5.7,'11111222,11111222,11111222' 
NOS,ioos:station:wmo:bzst2:1,2019-07-01T11:12:00Z,26.0670,-97.1550,15.0,4.7,160.0,5.7,'11111222,11111222,11111222' 
NOS,ioos:station:wmo:bzst2:1,2019-07-01T11:18:00Z,26.0670,-97.1550,15.0,4.7,163.0,5.4,'11111222,11111222,11111222' 
NOS,ioos:station:wmo:bzst2:1,2019-07-01T11:24:00Z,26.0670,-97.1550,15.0,4.7,164.0,5.6,'11111222,11111222,11111222' 
NOS,ioos:station:wmo:bzst2:1,2019-07-01T11:30:00Z,26.0670,-97.1550,15.0,4.5,162.0,5.4,'11111222,11111222,11111222' 
NOS,ioos:station:wmo:bzst2:1,2019-07-01T11:36:00Z,26.0670,-97.1550,15.0,4.5,163.0,5.4,'11111222,11111222,11111222' 
NOS,ioos:station:wmo:bzst2:1,2019-07-01T11:42:00Z,26.0670,-97.1550,15.0,4.2,164.0,5.0,'11111222,11111222,11111222' 
NOS,ioos:station:wmo:bzst2:1,2019-07-01T11:48:00Z,26.0670,-97.1550,15.0,4.2,164.0,5.1,'11111222,11111222,11111222' 
NOS,ioos:station:wmo:bzst2:1,2019-07-01T11:54:00Z,26.0670,-97.1550,15.0,4.5,160.0,5.1,'11111222,11111222,11111222' 
NOS,ioos:station:wmo:bzst2:1,2019-07-01T12:00:00Z,26.0670,-97.1550,15.0,3.9,159.0,5.0,'11111222,11111222,11111222' 
NOS,ioos:station:wmo:bzst2:1,2019-07-01T12:06:00Z,26.0670,-97.1550,15.0,3.9,144.0,4.6,'11111222,11111222,11111222' 
NOS,ioos:station:wmo:bzst2:1,2019-07-01T12:12:00Z,26.0670,-97.1550,15.0,4.5,142.0,5.2,'11111222,11111222,11111222' 
NOS,ioos:station:wmo:bzst2:1,2019-07-01T12:18:00Z,26.0670,-97.1550,15.0,5.0,153.0,5.6,'11111222,11111222,11111222' 
NOS,ioos:station:wmo:bzst2:1,2019-07-01T12:24:00Z,26.0670,-97.1550,15.0,5.1,162.0,5.9,'11111222,11111222,11111222' 
NOS,ioos:station:wmo:bzst2:1,2019-07-01T12:30:00Z,26.0670,-97.1550,15.0,5.4,159.0,6.1,'11111222,11111222,11111222' 
NOS,ioos:station:wmo:bzst2:1,2019-07-01T12:36:00Z,26.0670,-97.1550,15.0,4.5,159.0,5.8,'11111222,11111222,11111222' 
NOS,ioos:station:wmo:bzst2:1,2019-07-01T12:42:00Z,26.0670,-97.1550,15.0,4.6,162.0,5.4,'11111222,11111222,11111222' 
NOS,ioos:station:wmo:bzst2:1,2019-07-01T12:48:00Z,26.0670,-97.1550,15.0,4.6,164.0,5.4,'11111222,11111222,11111222' 
NOS,ioos:station:wmo:bzst2:1,2019-07-01T12:54:00Z,26.0670,-97.1550,15.0,4.0,157.0,5.0,'11111222,11111222,11111222' 
NOS,ioos:station:wmo:bzst2:1,2019-07-01T13:00:00Z,26.0670,-97.1550,15.0,3.9,160.0,4.7,'11111222,11111222,11111222' 
NOS,ioos:station:wmo:bzst2:1,2019-07-01T13:06:00Z,26.0670,-97.1550,15.0,5.0,164.0,6.4,'11111222,11111222,11111222' 
NOS,ioos:station:wmo:bzst2:1,2019-07-01T13:12:00Z,26.0670,-97.1550,15.0,4.7,168.0,5.8,'11111222,11111222,11111222' 
NOS,ioos:station:wmo:bzst2:1,2019-07-01T13:18:00Z,26.0670,-97.1550,15.0,5.2,166.0,6.2,'11111222,11111222,11111222' 
NOS,ioos:station:wmo:bzst2:1,2019-07-01T13:24:00Z,26.0670,-97.1550,15.0,4.2,170.0,5.6,'11111222,11111222,11111222' 
NOS,ioos:station:wmo:bzst2:1,2019-07-01T13:30:00Z,26.0670,-97.1550,15.0,4.0,169.0,5.2,'11111222,11111222,11111222' 
NOS,ioos:station:wmo:bzst2:1,2019-07-01T13:36:00Z,26.0670,-97.1550,15.0,4.3,171.0,5.1,'11111222,11111222,11111222' 
NOS,ioos:station:wmo:bzst2:1,2019-07-01T13:42:00Z,26.0670,-97.1550,15.0,3.6,172.0,4.7,'11111222,11111222,11111222' 
NOS,ioos:station:wmo:bzst2:1,2019-07-01T13:48:00Z,26.0670,-97.1550,15.0,3.9,166.0,4.7,'11111222,11111222,11111222' 
NOS,ioos:station:wmo:bzst2:1,2019-07-01T13:54:00Z,26.0670,-97.1550,15.0,3.8,172.0,4.8,'11111222,11111222,11111222' 
NOS,ioos:station:wmo:bzst2:1,2019-07-01T14:00:00Z,26.0670,-97.1550,15.0,3.9,169.0,5.0,'11111222,11111222,11111222' 
NOS,ioos:station:wmo:bzst2:1,2019-07-01T14:06:00Z,26.0670,-97.1550,15.0,3.9,165.0,4.6,'11111222,11111222,11111222' 
NOS,ioos:station:wmo:bzst2:1,2019-07-01T14:12:00Z,26.0670,-97.1550,15.0,3.7,159.0,4.5,'11111222,11111222,11111222' 
NOS,ioos:station:wmo:bzst2:1,2019-07-01T14:18:00Z,26.0670,-97.1550,15.0,4.0,162.0,4.8,'11111222,11111222,11111222' 
NOS,ioos:station:wmo:bzst2:1,2019-07-01T14:24:00Z,26.0670,-97.1550,15.0,4.0,158.0,4.6,'11111222,11111222,11111222' 
NOS,ioos:station:wmo:bzst2:1,2019-07-01T14:30:00Z,26.0670,-97.1550,15.0,3.8,160.0,4.7,'11111222,11111222,11111222' 
NOS,ioos:station:wmo:bzst2:1,2019-07-01T14:36:00Z,26.0670,-97.1550,15.0,4.1,158.0,4.8,'11111222,11111222,11111222' 
NOS,ioos:station:wmo:bzst2:1,2019-07-01T14:42:00Z,26.0670,-97.1550,15.0,3.9,160.0,5.4,'11111222,11111222,11111222' 
NOS,ioos:station:wmo:bzst2:1,2019-07-01T14:48:00Z,26.0670,-97.1550,15.0,4.1,159.0,4.6,'11111222,11111222,11111222' 
NOS,ioos:station:wmo:bzst2:1,2019-07-01T14:54:00Z,26.0670,-97.1550,15.0,4.2,157.0,5.2,'11111222,11111222,11111222' 
NOS,ioos:station:wmo:bzst2:1,2019-07-01T15:00:00Z,26.0670,-97.1550,15.0,4.2,160.0,4.9,'11111222,11111222,11111222' 
NOS,ioos:station:wmo:bzst2:1,2019-07-01T15:06:00Z,26.0670,-97.1550,15.0,4.2,159.0,5.0,'11111222,11111222,11111222' 
NOS,ioos:station:wmo:bzst2:1,2019-07-01T15:12:00Z,26.0670,-97.1550,15.0,3.6,153.0,4.7,'11111222,11111222,11111222' 
NOS,ioos:station:wmo:bzst2:1,2019-07-01T15:18:00Z,26.0670,-97.1550,15.0,3.6,148.0,4.2,'11111222,11111222,11111222' 
NOS,ioos:station:wmo:bzst2:1,2019-07-01T15:24:00Z,26.0670,-97.1550,15.0,3.5,141.0,4.2,'11111222,11111222,11111222' 
NOS,ioos:station:wmo:bzst2:1,2019-07-01T15:30:00Z,26.0670,-97.1550,15.0,3.3,138.0,3.9,'11111222,11111222,11111222' 
NOS,ioos:station:wmo:bzst2:1,2019-07-01T15:36:00Z,26.0670,-97.1550,15.0,3.6,144.0,3.9,'11111222,11111222,11111222' 
NOS,ioos:station:wmo:bzst2:1,2019-07-01T15:42:00Z,26.0670,-97.1550,15.0,3.8,145.0,4.3,'11111222,11111222,11111222' 
NOS,ioos:station:wmo:bzst2:1,2019-07-01T15:48:00Z,26.0670,-97.1550,15.0,3.9,141.0,4.4,'11111222,11111222,11111222' 
NOS,ioos:station:wmo:bzst2:1,2019-07-01T15:54:00Z,26.0670,-97.1550,15.0,3.8,140.0,4.1,'11111222,11111222,11111222' 
NOS,ioos:station:wmo:bzst2:1,2019-07-01T16:00:00Z,26.0670,-97.1550,15.0,4.7,145.0,5.1,'11111222,11111222,11111222' 
NOS,ioos:station:wmo:bzst2:1,2019-07-01T16:06:00Z,26.0670,-97.1550,15.0,4.7,147.0,5.2,'11111222,11111222,11111222' 
NOS,ioos:station:wmo:bzst2:1,2019-07-01T16:12:00Z,26.0670,-97.1550,15.0,4.7,146.0,5.2,'11111222,11111222,11111222' 
NOS,ioos:station:wmo:bzst2:1,2019-07-01T16:18:00Z,26.0670,-97.1550,15.0,4.9,145.0,5.3,'11111222,11111222,11111222' 
NOS,ioos:station:wmo:bzst2:1,2019-07-01T16:24:00Z,26.0670,-97.1550,15.0,4.5,142.0,5.0,'11111222,11111222,11111222' 
NOS,ioos:station:wmo:bzst2:1,2019-07-01T16:30:00Z,26.0670,-97.1550,15.0,4.1,143.0,4.7,'11111222,11111222,11111222' 
NOS,ioos:station:wmo:bzst2:1,2019-07-01T16:36:00Z,26.0670,-97.1550,15.0,4.1,139.0,4.6,'11111222,11111222,11111222' 
NOS,ioos:station:wmo:bzst2:1,2019-07-01T16:42:00Z,26.0670,-97.1550,15.0,4.2,135.0,4.6,'11111222,11111222,11111222' 
NOS,ioos:station:wmo:bzst2:1,2019-07-01T16:48:00Z,26.0670,-97.1550,15.0,4.1,133.0,4.6,'11111222,11111222,11111222' 
NOS,ioos:station:wmo:bzst2:1,2019-07-01T16:54:00Z,26.0670,-97.1550,15.0,4.1,133.0,4.5,'11111222,11111222,11111222' 
NOS,ioos:station:wmo:bzst2:1,2019-07-01T17:00:00Z,26.0670,-97.1550,15.0,4.4,138.0,4.9,'11111222,11111222,11111222' 
NOS,ioos:station:wmo:bzst2:1,2019-07-01T17:06:00Z,26.0670,-97.1550,15.0,4.3,140.0,4.7,'11111222,11111222,11111222' 
NOS,ioos:station:wmo:bzst2:1,2019-07-01T17:12:00Z,26.0670,-97.1550,15.0,3.6,143.0,4.3,'11111222,11111222,11111222' 
NOS,ioos:station:wmo:bzst2:1,2019-07-01T17:18:00Z,26.0670,-97.1550,15.0,4.2,142.0,4.7,'11111222,11111222,11111222' 
NOS,ioos:station:wmo:bzst2:1,2019-07-01T17:24:00Z,26.0670,-97.1550,15.0,4.1,144.0,4.8,'11111222,11111222,11111222' 
NOS,ioos:station:wmo:bzst2:1,2019-07-01T17:30:00Z,26.0670,-97.1550,15.0,4.1,146.0,4.5,'11111222,11111222,11111222' 
NOS,ioos:station:wmo:bzst2:1,2019-07-01T17:36:00Z,26.0670,-97.1550,15.0,4.0,144.0,4.4,'11111222,11111222,11111222' 
NOS,ioos:station:wmo:bzst2:1,2019-07-01T17:42:00Z,26.0670,-97.1550,15.0,3.8,139.0,4.2,'11111222,11111222,11111222' 
NOS,ioos:station:wmo:bzst2:1,2019-07-01T17:48:00Z,26.0670,-97.1550,15.0,3.9,143.0,4.3,'11111222,11111222,11111222' 
NOS,ioos:station:wmo:bzst2:1,2019-07-01T17:54:00Z,26.0670,-97.1550,15.0,3.7,140.0,4.2,'11111222,11111222,11111222' 
NOS,ioos:station:wmo:bzst2:1,2019-07-01T18:00:00Z,26.0670,-97.1550,15.0,3.7,134.0,4.1,'11111222,11111222,11111222' 
NOS,ioos:station:wmo:bzst2:1,2019-07-01T18:06:00Z,26.0670,-97.1550,15.0,3.3,126.0,4.0,'11111222,11111222,11111222' 
NOS,ioos:station:wmo:bzst2:1,2019-07-01T18:12:00Z,26.0670,-97.1550,15.0,3.2,127.0,3.7,'11111222,11111222,11111222' 
NOS,ioos:station:wmo:bzst2:1,2019-07-01T18:18:00Z,26.0670,-97.1550,15.0,3.6,131.0,4.2,'11111222,11111222,11111222' 
NOS,ioos:station:wmo:bzst2:1,2019-07-01T18:24:00Z,26.0670,-97.1550,15.0,3.7,127.0,4.1,'11111222,11111222,11111222' 
NOS,ioos:station:wmo:bzst2:1,2019-07-01T18:30:00Z,26.0670,-97.1550,15.0,3.6,125.0,4.1,'11111222,11111222,11111222' 
NOS,ioos:station:wmo:bzst2:1,2019-07-01T18:36:00Z,26.0670,-97.1550,15.0,3.8,121.0,4.2,'11111222,11111222,11111222' 
NOS,ioos:station:wmo:bzst2:1,2019-07-01T18:42:00Z,26.0670,-97.1550,15.0,3.9,117.0,4.3,'11111222,11111222,11111222' 
NOS,ioos:station:wmo:bzst2:1,2019-07-01T18:48:00Z,26.0670,-97.1550,15.0,4.0,117.0,4.3,'11111222,11111222,11111222' 
NOS,ioos:station:wmo:bzst2:1,2019-07-01T18:54:00Z,26.0670,-97.1550,15.0,3.7,120.0,4.6,'11111222,11111222,11111222' 
NOS,ioos:station:wmo:bzst2:1,2019-07-01T19:00:00Z,26.0670,-97.1550,15.0,3.7,120.0,4.0,'11111222,11111222,11111222' 
NOS,ioos:station:wmo:bzst2:1,2019-07-01T19:06:00Z,26.0670,-97.1550,15.0,3.7,123.0,4.4,'11111222,11111222,11111222' 
NOS,ioos:station:wmo:bzst2:1,2019-07-01T19:12:00Z,26.0670,-97.1550,15.0,4.4,123.0,5.2,'11111222,11111222,11111222' 
NOS,ioos:station:wmo:bzst2:1,2019-07-01T19:18:00Z,26.0670,-97.1550,15.0,4.1,124.0,5.1,'11111222,11111222,11111222' 
NOS,ioos:station:wmo:bzst2:1,2019-07-01T19:24:00Z,26.0670,-97.1550,15.0,4.5,131.0,5.0,'11111222,11111222,11111222' 
NOS,ioos:station:wmo:bzst2:1,2019-07-01T19:30:00Z,26.0670,-97.1550,15.0,4.6,138.0,5.1,'11111222,11111222,11111222' 
NOS,ioos:station:wmo:bzst2:1,2019-07-01T19:36:00Z,26.0670,-97.1550,15.0,4.8,135.0,5.5,'11111222,11111222,11111222' 
NOS,ioos:station:wmo:bzst2:1,2019-07-01T19:42:00Z,26.0670,-97.1550,15.0,4.7,140.0,5.6,'11111222,11111222,11111222' 
NOS,ioos:station:wmo:bzst2:1,2019-07-01T19:48:00Z,26.0670,-97.1550,15.0,5.3,137.0,5.8,'11111222,11111222,11111222' 
NOS,ioos:station:wmo:bzst2:1,2019-07-01T19:54:00Z,26.0670,-97.1550,15.0,5.8,138.0,6.5,'11111222,11111222,11111222' 
NOS,ioos:station:wmo:bzst2:1,2019-07-01T20:00:00Z,26.0670,-97.1550,15.0,5.3,142.0,6.2,'11111222,11111222,11111222' 
NOS,ioos:station:wmo:bzst2:1,2019-07-01T20:06:00Z,26.0670,-97.1550,15.0,5.6,143.0,6.4,'11111222,11111222,11111222' 
NOS,ioos:station:wmo:bzst2:1,2019-07-01T20:12:00Z,26.0670,-97.1550,15.0,5.1,146.0,6.4,'11111222,11111222,11111222' 
NOS,ioos:station:wmo:bzst2:1,2019-07-01T20:18:00Z,26.0670,-97.1550,15.0,5.4,142.0,5.8,'11111222,11111222,11111222' 
NOS,ioos:station:wmo:bzst2:1,2019-07-01T20:24:00Z,26.0670,-97.1550,15.0,5.3,143.0,6.3,'11111222,11111222,11111222' 